[[{"header":{"parameterUnit":"m.s-1","parameterCategory":2,"la1":30.2991,"la2":30.254,"lo1":-89.0895,"lo2":-89.0444,"dx":0.0017,"dy":0.0017,"nx":28,"ny":28,"refTime":"2023-01-30T15:00:00:Z","depth":"0","parameterNumber":2,"parameterNumberName":"U-component_of_CURRENTS"},"data":[0,0,0,0,0,0,0,0,0,0,0,0,0,0,0,0,0,0,0,0,0,0,0,0,0,0,0,0,0,0,0,0,0,0,0,0,0,0,0,0,0,0,0,0,0,0,0,0,0,0,0,0,0,0,0,0,0,0,0.5012,0.5013,0,0.5168,0.517,0.5172,0.5211,0.521,0.5209,0.5208,0.531,0.5313,0.5317,0,0,0,0,0,0,0,0,0,0,0,0,0,0.4794,0.4797,0.5011,0.5013,0.5015,0.5168,0.517,0.5172,0.5211,0.521,0.5209,0.5207,0.5308,0.5313,0.5317,0,0,0,0,0,0,0,0,0,0,0,0,0,0.4913,0.4799,0.5011,0.5053,0.5058,0.5168,0.517,0.5173,0.5211,0.521,0.5208,0.5207,0.5307,0.5312,0.5318,0.5382,0,0,0.5335,0.5337,0,0,0,0,0,0,0,0,0.4906,0.4921,0.5045,0.505,0.5056,0.5168,0.5131,0.524,0.5212,0.5153,0.5208,0.5206,0.5258,0.5268,0.5302,0.5387,0.5392,0.5335,0.5338,0.5341,0.5342,0,0,0,0,0,0,0,0.4898,0.4915,0.5074,0.5047,0.5054,0.508,0.5095,0.5152,0.5212,0.5158,0.5162,0.5179,0.5261,0.5296,0.5304,0.5393,0.5335,0.534,0.5343,0.5345,0.5557,0.5559,0,0,0,0,0,0,0.4878,0.4908,0.5069,0.5078,0.4976,0.5085,0.5102,0.5134,0.5212,0.5223,0.518,0.518,0.5288,0.5298,0.5308,0.5354,0.5341,0.5346,0.5349,0.5555,0.5558,0.556,0,0,0,0,0,0,0.4873,0.4892,0.5062,0.4995,0.5018,0.509,0.5126,0.5138,0.5179,0.523,0.5239,0.5209,0.5287,0.53,0.5375,0.5359,0.5348,0.5353,0.5552,0.5556,0.5559,0.5469,0,0,0,0,0,0,0.4867,0.489,0.4913,0.4994,0.5022,0.513,0.5128,0.5142,0.5192,0.5194,0.5258,0.5266,0.5287,0.5367,0.5381,0.5367,0.5358,0.5549,0.5554,0.5558,0.5469,0.5469,0.5469,0,0,0,0,0,0.4859,0.4891,0.4913,0.4933,0.5049,0.5131,0.5149,0.5193,0.5194,0.5223,0.5271,0.5264,0.5404,0.5374,0.539,0.5376,0.5547,0.5552,0.5557,0.5469,0.5469,0.5469,0,0,0,0,0,0,0.4799,0.4901,0.4926,0.4986,0.5055,0.5138,0.5161,0.5202,0.5266,0.5257,0.5303,0.5316,0.5372,0.5413,0.5379,0.5459,0.5472,0.548,0.5399,0.54,0.54,0.5361,0.5362,0,0,0,0,0,0.4801,0.4847,0.4946,0.4985,0.5018,0.5094,0.5133,0.5169,0.5233,0.5259,0.5294,0.5348,0.5411,0.5434,0.5491,0.5542,0.5587,0.5548,0.5548,0.5547,0.5532,0.5613,0.5617,0.5577,0.5577,0.5577,0,0,0.4773,0.4843,0.4861,0.4975,0.5021,0.5065,0.5113,0.5168,0.5191,0.526,0.5286,0.5351,0.5432,0.5479,0.5507,0.5504,0.5587,0.5554,0.5551,0.5537,0.5619,0.5622,0.5625,0.5581,0.558,0.558,0,0,0.4741,0.4816,0.4841,0.4904,0.4993,0.5046,0.5064,0.5148,0.5173,0.5238,0.5283,0.5344,0.5433,0.5472,0.5511,0.5558,0.559,0.5581,0.5533,0.5611,0.5614,0.5616,0.5678,0.5687,0.5571,0.5571,0.5571,0,0.47,0.4767,0.4857,0.4901,0.4937,0.5031,0.5055,0.5106,0.5195,0.5213,0.5231,0.5364,0.5423,0.5484,0.5499,0.5547,0.5603,0.5511,0.5605,0.5608,0.5612,0.5675,0.5686,0.5567,0.5568,0.5568,0.5568,0,0.4693,0.4747,0.4763,0.4845,0.4897,0.4939,0.5018,0.5052,0.5094,0.5145,0.5213,0.5305,0.5379,0.5412,0.5471,0.5529,0.5563,0.5595,0.5584,0.5609,0.5676,0.5689,0.5562,0.5563,0.5564,0.5565,0,0,0.4594,0.4731,0.4736,0.4758,0.4876,0.4906,0.4942,0.5011,0.5018,0.5101,0.512,0.5237,0.5286,0.5338,0.541,0.5475,0.5557,0.5542,0.5548,0.5567,0.5729,0.5662,0.567,0.5608,0.561,0.5611,0.5762,0,0.4557,0.4615,0.47,0.4722,0.4752,0.4841,0.4863,0.4928,0.4989,0.5027,0.5125,0.5185,0.5259,0.5296,0.5373,0.5519,0.5588,0.5513,0.5734,0.574,0.5647,0.5681,0.5594,0.5713,0.5775,0.5777,0.5778,0,0.4523,0.4573,0.4596,0.4664,0.468,0.4697,0.4741,0.478,0.487,0.4918,0.4995,0.5086,0.5196,0.5256,0.5479,0.5434,0.5573,0.5679,0.5688,0.5659,0.5696,0.5704,0.5734,0.5645,0.5798,0.5797,0.5795,0,0.4406,0.4492,0.4502,0.453,0.4621,0.4618,0.4657,0.4734,0.476,0.4849,0.4883,0.5023,0.5098,0.5283,0.5504,0.551,0.5746,0.5782,0.5848,0.5846,0.5828,0.5819,0.5761,0.5939,0.5938,0.5938,0.5938,0,0.4346,0.4346,0.4441,0.4443,0.4431,0.4517,0.4508,0.4565,0.4641,0.467,0.4814,0.4863,0.5115,0.5282,0.5483,0.569,0.5737,0.5837,0.5878,0.5797,0.5784,0.5751,0.5724,0.5944,0.5942,0.5941,0.594,0,0.422,0.4291,0.4299,0.437,0.438,0.4364,0.4423,0.4426,0.451,0.455,0.4581,0.4766,0.4983,0.5228,0.5531,0.5646,0.5744,0.5928,0.5798,0.5819,0.5752,0.5725,0.5482,0.5361,0.6011,0.601,0.6009,0,0.4167,0.4165,0.422,0.4219,0.4247,0.4248,0.4256,0.4343,0.4361,0.4489,0.4502,0.4709,0.4858,0.524,0.5511,0.5819,0.5716,0.5864,0.5844,0.5716,0.572,0.546,0.5357,0.581,0.5808,0.5806,0.5804,0,0.406,0.4081,0.4092,0.41,0.4099,0.4096,0.4114,0.4109,0.4213,0.427,0.4361,0.4489,0.4863,0.5123,0.5493,0.5684,0.5607,0.5831,0.5755,0.5584,0.5245,0.516,0.5732,0.5788,0.579,0.5791,0.5792,0.5792,0.3967,0.3956,0.398,0.3968,0.3967,0.3932,0.3882,0.3936,0.3953,0.4022,0.4198,0.4374,0.4812,0.5328,0.544,0.5607,0.5518,0.5596,0.5589,0.5345,0.5144,0.5643,0.5698,0.5699,0.57,0.5701,0.5702,0,0.3851,0.3857,0.3852,0.382,0.3762,0.3808,0.3777,0.3727,0.3714,0.3889,0.3994,0.4422,0.4774,0.5125,0.5516,0.5433,0.521,0.5319,0.4983,0.4912,0.5456,0.5365,0.5279,0.5279,0.5279,0.528,0.528,0.528,0.3792,0.3747,0.3752,0.3625,0.3596,0.3482,0.3439,0.3414,0.35,0.3638,0.3848,0.4067,0.4588,0.517,0.5346,0.5279,0.4941,0.4724,0.4659,0.5143,0.5168,0.5191,0.5096,0.4955,0.4955,0.3958,0.3951,0.3946]},{"header":{"parameterUnit":"m.s-1","parameterCategory":2,"la1":30.2991,"la2":30.254,"lo1":-89.0895,"lo2":-89.0444,"dx":0.0017,"dy":0.0017,"nx":28,"ny":28,"refTime":"2023-01-30T15:00:00:Z","depth":"0","parameterNumber":3,"parameterNumberName":"V-component_of_CURRENTS"},"data":[0,0,0,0,0,0,0,0,0,0,0,0,0,0,0,0,0,0,0,0,0,0,0,0,0,0,0,0,0,0,0,0,0,0,0,0,0,0,0,0,0,0,0,0,0,0,0,0,0,0,0,0,0,0,0,0,0,0,0.1225,0.1226,0,0.1288,0.1288,0.1289,0.1258,0.1257,0.1255,0.1254,0.1304,0.1307,0.131,0,0,0,0,0,0,0,0,0,0,0,0,0,0.1121,0.1123,0.1225,0.1226,0.1227,0.1288,0.1288,0.1289,0.1259,0.1257,0.1255,0.1253,0.1303,0.1307,0.131,0,0,0,0,0,0,0,0,0,0,0,0,0,0.1173,0.1123,0.1225,0.1219,0.1219,0.1287,0.1288,0.1289,0.1259,0.1257,0.1254,0.1252,0.1302,0.1306,0.1311,0.1385,0,0,0.1324,0.1325,0,0,0,0,0,0,0,0,0.117,0.1177,0.1219,0.1219,0.122,0.1263,0.127,0.1321,0.126,0.1244,0.1254,0.1251,0.1291,0.1296,0.1313,0.1387,0.139,0.1324,0.1326,0.1328,0.133,0,0,0,0,0,0,0,0.1166,0.1174,0.125,0.122,0.122,0.1227,0.1232,0.128,0.128,0.1245,0.1243,0.1251,0.1291,0.1309,0.1314,0.139,0.1324,0.1328,0.133,0.1332,0.1579,0.1583,0,0,0,0,0,0,0.116,0.1171,0.1248,0.1252,0.1188,0.1231,0.1236,0.1251,0.1279,0.1282,0.1253,0.1249,0.1303,0.1309,0.1316,0.1433,0.1328,0.1332,0.1335,0.1575,0.158,0.1584,0,0,0,0,0,0,0.1158,0.1167,0.1245,0.1212,0.1222,0.1235,0.1253,0.1254,0.1279,0.1286,0.1287,0.1277,0.1301,0.131,0.1387,0.1433,0.1334,0.1338,0.157,0.1576,0.1582,0.165,0,0,0,0,0,0,0.1154,0.1166,0.1188,0.1212,0.1224,0.1302,0.1255,0.1257,0.1287,0.1283,0.1308,0.1309,0.13,0.1381,0.1391,0.1437,0.1341,0.1565,0.1573,0.158,0.1643,0.1658,0.1671,0,0,0,0,0,0.1151,0.1189,0.1189,0.1199,0.125,0.1304,0.1312,0.1311,0.1291,0.1322,0.1344,0.1309,0.1435,0.1389,0.1399,0.1447,0.1562,0.1571,0.158,0.1637,0.1655,0.167,0,0,0,0,0,0,0.1162,0.119,0.119,0.1237,0.1274,0.1299,0.1324,0.1331,0.1374,0.1369,0.1365,0.1371,0.1455,0.146,0.1408,0.1547,0.1492,0.1504,0.1532,0.1549,0.1563,0.1565,0.1345,0,0,0,0,0,0.1175,0.1208,0.1238,0.1281,0.1293,0.1315,0.134,0.1348,0.1382,0.1396,0.1406,0.1441,0.1506,0.153,0.1576,0.1658,0.1629,0.1699,0.1713,0.1724,0.1739,0.1742,0.1756,0.1614,0.1614,0.1614,0,0,0.1188,0.1214,0.123,0.1286,0.1304,0.135,0.1324,0.1371,0.1418,0.14,0.1459,0.1492,0.1542,0.1627,0.1665,0.1632,0.175,0.1736,0.1744,0.1753,0.1753,0.1766,0.1777,0.162,0.1619,0.1618,0,0,0.1237,0.1254,0.1294,0.1329,0.1375,0.1392,0.1411,0.1444,0.1464,0.1544,0.1546,0.1617,0.1685,0.1735,0.1772,0.1902,0.1826,0.191,0.1975,0.1978,0.1988,0.1997,0.1959,0.1964,0.1911,0.1911,0.1911,0,0.1256,0.131,0.1319,0.137,0.1404,0.1413,0.147,0.1506,0.1563,0.1604,0.157,0.1716,0.1745,0.1877,0.1916,0.1931,0.1895,0.1896,0.199,0.1998,0.2006,0.1965,0.1969,0.1916,0.1915,0.1915,0.1914,0,0.133,0.1377,0.1404,0.1464,0.1506,0.1561,0.1599,0.1646,0.1662,0.17,0.1815,0.1861,0.1943,0.1971,0.1983,0.2079,0.2021,0.2002,0.193,0.2023,0.1976,0.1979,0.1922,0.192,0.1919,0.1918,0,0,0.1368,0.1441,0.1452,0.1493,0.1562,0.1605,0.1686,0.1775,0.1843,0.1886,0.1976,0.2089,0.2093,0.2139,0.2159,0.217,0.2189,0.2107,0.2105,0.2039,0.2151,0.2025,0.2015,0.2161,0.2163,0.2164,0.2087,0,0.1428,0.1522,0.1551,0.1649,0.1697,0.1736,0.1815,0.1896,0.1955,0.2036,0.2096,0.2188,0.2163,0.2207,0.222,0.2214,0.2203,0.2209,0.21,0.2097,0.1947,0.2018,0.1957,0.1876,0.209,0.209,0.209,0,0.1498,0.1551,0.1643,0.1742,0.1767,0.1827,0.1951,0.2027,0.2144,0.219,0.2275,0.2303,0.238,0.2318,0.232,0.2312,0.2241,0.2205,0.2201,0.2063,0.1977,0.1827,0.1872,0.1577,0.2094,0.2094,0.2093,0,0.1517,0.1624,0.1695,0.1728,0.1834,0.1892,0.1954,0.2076,0.2163,0.2283,0.2352,0.2418,0.246,0.2404,0.2344,0.2321,0.2296,0.2251,0.2067,0.2055,0.1976,0.1954,0.17,0.2225,0.2225,0.2225,0.2226,0,0.1573,0.1632,0.1706,0.1745,0.1848,0.1913,0.2041,0.212,0.225,0.2373,0.2422,0.252,0.2478,0.2467,0.2372,0.2231,0.2312,0.2088,0.2039,0.1997,0.1979,0.1695,0.1524,0.2222,0.2223,0.2224,0.2224,0,0.1581,0.163,0.1715,0.1818,0.1856,0.1925,0.2072,0.2174,0.2288,0.2444,0.2486,0.2591,0.2581,0.2511,0.2426,0.2264,0.1952,0.2071,0.2002,0.1945,0.1451,0.1288,0.1091,0.0859,0.1833,0.1829,0.1827,0,0.1588,0.1631,0.1743,0.1795,0.184,0.1949,0.204,0.2175,0.2293,0.2498,0.258,0.263,0.2701,0.2516,0.2275,0.2061,0.184,0.1787,0.1738,0.1413,0.1197,0.1188,0.1006,0.1657,0.1653,0.165,0.1647,0,0.1594,0.1632,0.1695,0.1802,0.1892,0.2015,0.2152,0.225,0.2431,0.2568,0.2741,0.2812,0.2665,0.2461,0.214,0.195,0.1506,0.1704,0.1413,0.1068,0.1004,0.0761,0.1685,0.1618,0.1621,0.1623,0.1625,0.1626,0.1584,0.1626,0.171,0.1817,0.1927,0.2081,0.2186,0.2346,0.253,0.2773,0.2844,0.3008,0.2697,0.2277,0.1895,0.1197,0.1262,0.0989,0.0828,0.0861,0.0601,0.1424,0.1269,0.127,0.1271,0.1272,0.1272,0,0.1568,0.1629,0.1724,0.1859,0.1981,0.2053,0.2267,0.2392,0.2593,0.286,0.3031,0.3096,0.25,0.1966,0.1074,0.048,0.0302,0.0157,0.0125,-0.0021,0.0754,0.0704,0.0364,0.0364,0.0365,0.0365,0.0365,0.0366,0.1559,0.1634,0.1698,0.1877,0.1981,0.2157,0.2282,0.248,0.271,0.3065,0.3307,0.3505,0.3252,0.1472,0.0169,-0.0222,-0.0681,-0.0708,-0.0967,-0.0451,-0.0384,-0.032,-0.0406,-0.0973,-0.0975,-0.1644,-0.1652,-0.1658]}],[{"header":{"parameterUnit":"m.s-1","parameterCategory":2,"la1":30.2991,"la2":30.254,"lo1":-89.0895,"lo2":-89.0444,"dx":0.0017,"dy":0.0017,"nx":28,"ny":28,"refTime":"2023-01-30T15:00:00:Z","depth":"2","parameterNumber":2,"parameterNumberName":"U-component_of_CURRENTS"},"data":[0,0,0,0,0,0,0,0,0,0,0,0,0,0,0,0,0,0,0,0,0,0,0,0,0,0,0,0,0,0,0,0,0,0,0,0,0,0,0,0,0,0,0,0,0,0,0,0,0,0,0,0,0,0,0,0,0,0,0.1964,0.1964,0,0.2045,0.2046,0.2047,0.2077,0.2077,0.2076,0.2076,0.2117,0.2119,0.212,0,0,0,0,0,0,0,0,0,0,0,0,0,0.1828,0.183,0.1963,0.1964,0.1965,0.2045,0.2047,0.2048,0.2077,0.2077,0.2076,0.2076,0.2117,0.2119,0.212,0,0,0,0,0,0,0,0,0,0,0,0,0,0.1897,0.1831,0.1963,0.1989,0.1992,0.2045,0.2047,0.2048,0.2077,0.2077,0.2076,0.2076,0.2116,0.2119,0.2121,0.2145,0,0,0.2127,0.2128,0,0,0,0,0,0,0,0,0.1893,0.1902,0.1984,0.1987,0.1991,0.205,0.2014,0.2078,0.2077,0.2046,0.2076,0.2075,0.2091,0.2095,0.2114,0.2147,0.2149,0.2127,0.2129,0.213,0.213,0,0,0,0,0,0,0,0.1888,0.1898,0.1997,0.1985,0.1989,0.1995,0.2004,0.2026,0.207,0.2049,0.2051,0.2059,0.2092,0.2112,0.2115,0.2149,0.2127,0.2129,0.2131,0.2132,0.2257,0.2259,0,0,0,0,0,0,0.1877,0.1894,0.1994,0.1999,0.1938,0.1998,0.2008,0.2032,0.2071,0.2077,0.2059,0.206,0.2108,0.2112,0.2116,0.2196,0.213,0.2132,0.2133,0.2255,0.2258,0.226,0,0,0,0,0,0,0.1874,0.1886,0.1991,0.1946,0.196,0.2,0.2027,0.2034,0.2068,0.2079,0.2084,0.2087,0.2108,0.2113,0.2136,0.2195,0.2133,0.2135,0.2253,0.2256,0.2259,0.2323,0,0,0,0,0,0,0.1871,0.1885,0.19,0.1947,0.1962,0.2015,0.2028,0.2036,0.2073,0.2075,0.2105,0.2108,0.2108,0.2133,0.2139,0.2197,0.2136,0.225,0.2254,0.2258,0.2318,0.2328,0.2336,0,0,0,0,0,0.1866,0.189,0.19,0.1912,0.1981,0.2015,0.2024,0.2051,0.2074,0.2082,0.2105,0.2108,0.2163,0.2136,0.2142,0.2202,0.2248,0.2253,0.2257,0.2314,0.2326,0.2336,0,0,0,0,0,0,0.1837,0.1897,0.1909,0.195,0.1974,0.202,0.2039,0.2064,0.2094,0.2105,0.2118,0.2122,0.2173,0.2173,0.2144,0.2251,0.2213,0.2219,0.2255,0.2266,0.2274,0.2296,0.2138,0,0,0,0,0,0.1838,0.1875,0.1916,0.1947,0.1965,0.2008,0.2029,0.205,0.2082,0.2097,0.2121,0.2155,0.2197,0.2215,0.224,0.2288,0.2283,0.2336,0.2345,0.2353,0.2376,0.2381,0.2392,0.2275,0.2275,0.2275,0,0,0.1832,0.1872,0.1891,0.1943,0.1973,0.2009,0.202,0.206,0.21,0.2096,0.2158,0.2183,0.2215,0.2272,0.2297,0.2278,0.2388,0.2358,0.2365,0.2384,0.2387,0.2398,0.2408,0.2278,0.2277,0.2277,0,0,0.1844,0.188,0.1914,0.1945,0.1992,0.2017,0.2032,0.2086,0.2118,0.2172,0.2194,0.2246,0.23,0.2339,0.2368,0.2441,0.2432,0.2461,0.2528,0.2532,0.2541,0.2549,0.2571,0.258,0.2467,0.2467,0.2467,0,0.1834,0.1887,0.1923,0.1967,0.2001,0.2026,0.2069,0.2106,0.216,0.2214,0.2195,0.2325,0.2341,0.244,0.2471,0.2465,0.2465,0.2481,0.2542,0.255,0.2557,0.2577,0.2586,0.2471,0.2471,0.247,0.247,0,0.1876,0.1915,0.1939,0.2007,0.2046,0.2081,0.2137,0.2184,0.2232,0.2289,0.2392,0.2409,0.2493,0.2513,0.252,0.2606,0.2589,0.2547,0.251,0.2572,0.259,0.2599,0.2476,0.2475,0.2474,0.2473,0,0,0.1861,0.1949,0.1958,0.2,0.2074,0.2115,0.2192,0.2283,0.2363,0.2416,0.2517,0.2602,0.2631,0.2665,0.2676,0.2688,0.274,0.265,0.2648,0.2665,0.2765,0.2745,0.2752,0.2698,0.2699,0.2701,0.276,0,0.1878,0.1954,0.2004,0.2081,0.2126,0.2193,0.2269,0.2365,0.2438,0.253,0.2596,0.2689,0.2682,0.2727,0.2742,0.2749,0.2765,0.273,0.2709,0.271,0.2677,0.2762,0.2578,0.2614,0.2769,0.277,0.2771,0,0.1905,0.1956,0.2034,0.214,0.2172,0.2235,0.238,0.2449,0.2589,0.2649,0.2752,0.2798,0.289,0.2826,0.2884,0.286,0.2832,0.2811,0.2811,0.2778,0.2706,0.2576,0.2624,0.2785,0.2784,0.2783,0.2782,0,0.1889,0.1981,0.2046,0.2083,0.2206,0.2286,0.2363,0.2512,0.2592,0.2736,0.2809,0.2905,0.2973,0.2949,0.2952,0.292,0.2965,0.2905,0.2861,0.2859,0.2696,0.2677,0.2915,0.2915,0.2915,0.2915,0.2915,0,0.1893,0.1944,0.2052,0.2096,0.2192,0.2304,0.2424,0.252,0.2662,0.2775,0.2874,0.2968,0.3005,0.3045,0.2989,0.2981,0.3003,0.2908,0.2883,0.2716,0.2699,0.2832,0.2822,0.2917,0.2917,0.2916,0.2916,0,0.1866,0.1927,0.2006,0.2143,0.2187,0.2271,0.243,0.2517,0.2671,0.2808,0.2866,0.305,0.3135,0.3133,0.3127,0.3062,0.3018,0.2988,0.2812,0.2766,0.2899,0.2892,0.2972,0.2972,0.2972,0.2972,0.2972,0,0.1857,0.1898,0.202,0.2061,0.2129,0.225,0.2327,0.2492,0.2581,0.2856,0.2913,0.3098,0.3144,0.3162,0.313,0.3054,0.3048,0.2826,0.2736,0.2944,0.291,0.2902,0.2895,0.2545,0.2541,0.2538,0.2536,0,0.1833,0.188,0.1934,0.2017,0.2101,0.2181,0.2314,0.2382,0.2597,0.2717,0.291,0.298,0.3097,0.3,0.2956,0.2869,0.2828,0.2769,0.3024,0.2567,0.2547,0.2512,0.2517,0.251,0.2513,0.2515,0.2516,0.2517,0.1797,0.1815,0.1883,0.1957,0.2036,0.2117,0.2159,0.2296,0.2415,0.2558,0.2724,0.2738,0.2825,0.2681,0.2606,0.2593,0.2753,0.2594,0.2599,0.2608,0.2557,0.2538,0.2492,0.2494,0.2496,0.2498,0.2499,0,0.1729,0.1761,0.1821,0.1894,0.1938,0.2024,0.2138,0.2132,0.2219,0.2354,0.2419,0.2235,0.22,0.2282,0.2254,0.2264,0.2193,0.2153,0.2051,0.2081,0.2107,0.2024,0.182,0.1818,0.1815,0.1813,0,0,0.1686,0.1696,0.1727,0.1767,0.1835,0.1865,0.1908,0.1902,0.196,0.191,0.1916,0.2016,0.2194,0.1955,0.1974,0.1905,0.1953,0.1824,0.2381,0.2291,0.2312,0.239,0.2303,0,0,0,0,0]},{"header":{"parameterUnit":"m.s-1","parameterCategory":2,"la1":30.2991,"la2":30.254,"lo1":-89.0895,"lo2":-89.0444,"dx":0.0017,"dy":0.0017,"nx":28,"ny":28,"refTime":"2023-01-30T15:00:00:Z","depth":"2","parameterNumber":3,"parameterNumberName":"V-component_of_CURRENTS"},"data":[0,0,0,0,0,0,0,0,0,0,0,0,0,0,0,0,0,0,0,0,0,0,0,0,0,0,0,0,0,0,0,0,0,0,0,0,0,0,0,0,0,0,0,0,0,0,0,0,0,0,0,0,0,0,0,0,0,0,-0.0665,-0.0665,0,-0.0685,-0.0686,-0.0687,-0.0756,-0.0757,-0.0758,-0.0759,-0.0825,-0.0826,-0.0827,0,0,0,0,0,0,0,0,0,0,0,0,0,-0.0686,-0.0686,-0.0665,-0.0665,-0.0664,-0.0685,-0.0686,-0.0687,-0.0756,-0.0757,-0.0758,-0.0759,-0.0825,-0.0826,-0.0827,0,0,0,0,0,0,0,0,0,0,0,0,0,-0.0696,-0.0686,-0.0665,-0.0695,-0.0697,-0.0685,-0.0686,-0.0687,-0.0756,-0.0757,-0.0758,-0.0759,-0.0824,-0.0826,-0.0827,-0.0812,0,0,-0.0832,-0.0833,0,0,0,0,0,0,0,0,-0.0695,-0.0696,-0.0691,-0.0693,-0.0695,-0.0712,-0.0717,-0.0728,-0.0756,-0.0742,-0.0759,-0.076,-0.0785,-0.079,-0.0802,-0.0815,-0.0818,-0.0832,-0.0833,-0.0834,-0.0834,0,0,0,0,0,0,0,-0.0695,-0.0696,-0.0681,-0.069,-0.0693,-0.0706,-0.071,-0.072,-0.0764,-0.0744,-0.0747,-0.0735,-0.0788,-0.0801,-0.0804,-0.0819,-0.0832,-0.0833,-0.0834,-0.0835,-0.0866,-0.0866,0,0,0,0,0,0,-0.0674,-0.0695,-0.0681,-0.0681,-0.0689,-0.0704,-0.0709,-0.0712,-0.0763,-0.0769,-0.0734,-0.0738,-0.0797,-0.0802,-0.0807,-0.0802,-0.0834,-0.0835,-0.0836,-0.0866,-0.0866,-0.0866,0,0,0,0,0,0,-0.0675,-0.0674,-0.068,-0.0681,-0.0682,-0.0702,-0.0705,-0.0712,-0.0729,-0.0754,-0.0763,-0.0744,-0.0799,-0.0805,-0.0802,-0.0805,-0.0836,-0.0837,-0.0866,-0.0866,-0.0866,-0.0785,0,0,0,0,0,0,-0.0676,-0.0674,-0.0672,-0.068,-0.0681,-0.0641,-0.0704,-0.0711,-0.0715,-0.0722,-0.0765,-0.0772,-0.08,-0.0799,-0.0803,-0.0807,-0.0838,-0.0866,-0.0866,-0.0866,-0.0788,-0.0782,-0.0777,0,0,0,0,0,-0.0677,-0.0658,-0.0672,-0.067,-0.0677,-0.0637,-0.0639,-0.0664,-0.0714,-0.0693,-0.0735,-0.0771,-0.0803,-0.0799,-0.0804,-0.0809,-0.0867,-0.0866,-0.0866,-0.079,-0.0783,-0.0777,0,0,0,0,0,0,-0.0656,-0.0662,-0.0679,-0.0662,-0.0637,-0.0646,-0.0636,-0.0659,-0.0679,-0.0702,-0.075,-0.0757,-0.0766,-0.0792,-0.0787,-0.0821,-0.0849,-0.085,-0.079,-0.0784,-0.0778,-0.0763,-0.084,0,0,0,0,0,-0.065,-0.0648,-0.0636,-0.0618,-0.0611,-0.063,-0.0624,-0.0634,-0.0647,-0.066,-0.0696,-0.0741,-0.0768,-0.0777,-0.0802,-0.08,-0.0824,-0.0815,-0.081,-0.0805,-0.0798,-0.0821,-0.0817,-0.0866,-0.0866,-0.0866,0,0,-0.0634,-0.0638,-0.0635,-0.0614,-0.0618,-0.0583,-0.0632,-0.061,-0.0598,-0.0662,-0.0677,-0.0718,-0.0764,-0.0771,-0.0779,-0.0791,-0.0804,-0.0805,-0.08,-0.0796,-0.082,-0.0816,-0.0811,-0.0865,-0.0865,-0.0865,0,0,-0.058,-0.0608,-0.0578,-0.0564,-0.0545,-0.0549,-0.0538,-0.0546,-0.0569,-0.0566,-0.0629,-0.0661,-0.0697,-0.0729,-0.0752,-0.0731,-0.0777,-0.0754,-0.0709,-0.0731,-0.0727,-0.0723,-0.0743,-0.0742,-0.0749,-0.0749,-0.0749,0,-0.0558,-0.0525,-0.0554,-0.0519,-0.0506,-0.0531,-0.0485,-0.05,-0.0508,-0.0528,-0.0559,-0.0638,-0.068,-0.0696,-0.07,-0.0719,-0.0736,-0.0724,-0.0722,-0.0719,-0.0717,-0.0738,-0.0738,-0.0745,-0.0745,-0.0746,-0.0746,0,-0.0478,-0.0453,-0.0434,-0.0412,-0.04,-0.0359,-0.0377,-0.0381,-0.0428,-0.0455,-0.0491,-0.0544,-0.059,-0.062,-0.0655,-0.0667,-0.0686,-0.0711,-0.0731,-0.0707,-0.0731,-0.0732,-0.0739,-0.0741,-0.0742,-0.0743,0,0,-0.0417,-0.0381,-0.0374,-0.0351,-0.0345,-0.0321,-0.0316,-0.0308,-0.0313,-0.0359,-0.0369,-0.0443,-0.0494,-0.0523,-0.0575,-0.0602,-0.0612,-0.0646,-0.0649,-0.0653,-0.0655,-0.066,-0.0663,-0.0633,-0.0633,-0.0633,-0.0676,0,-0.0335,-0.025,-0.0264,-0.0192,-0.0153,-0.0195,-0.0178,-0.0197,-0.0239,-0.0254,-0.034,-0.0366,-0.0449,-0.0466,-0.0508,-0.0584,-0.0613,-0.0598,-0.069,-0.0693,-0.0689,-0.0663,-0.0634,-0.0668,-0.0677,-0.0677,-0.0678,0,-0.0248,-0.0204,-0.0122,-0.0089,-0.0079,-0.005,-0.0058,-0.0046,-0.0092,-0.0132,-0.0189,-0.0252,-0.0309,-0.0376,-0.0489,-0.0473,-0.0558,-0.0621,-0.0625,-0.0658,-0.0699,-0.0698,-0.0671,-0.068,-0.068,-0.068,-0.068,0,-0.0188,-0.011,-0.0047,-0.0036,-0.0,0.0009,0.0022,-0.0014,0.0002,-0.0052,-0.0049,-0.0145,-0.0165,-0.0289,-0.0437,-0.0459,-0.0553,-0.06,-0.0683,-0.0684,-0.0692,-0.0694,-0.0673,-0.0673,-0.0673,-0.0673,-0.0673,0,-0.0102,-0.0049,-0.0012,0.0022,0.0094,0.0073,0.0128,0.011,0.0111,0.0155,0.0025,0.0049,-0.0142,-0.0225,-0.0385,-0.0528,-0.0516,-0.0665,-0.0691,-0.0664,-0.0662,-0.0704,-0.0707,-0.0674,-0.0674,-0.0674,-0.0674,0,-0.0043,-0.0014,0.0063,0.011,0.0127,0.0169,0.0224,0.0265,0.0242,0.0302,0.0299,0.021,0.0096,-0.0102,-0.0286,-0.0434,-0.0591,-0.0647,-0.0601,-0.062,-0.0723,-0.0722,-0.0742,-0.0743,-0.0743,-0.0743,-0.0744,0,-0.0,0.0047,0.0123,0.0178,0.0205,0.0268,0.0323,0.0328,0.0383,0.0415,0.0464,0.0376,0.0321,0.0032,-0.024,-0.0509,-0.0561,-0.0652,-0.0698,-0.0704,-0.0728,-0.0726,-0.0724,-0.0678,-0.0678,-0.0678,-0.0678,0,0.0084,0.0102,0.0166,0.0277,0.0346,0.0433,0.0513,0.0584,0.0615,0.0674,0.0755,0.0715,0.043,0.0165,-0.0226,-0.0413,-0.0613,-0.0654,-0.0663,-0.0663,-0.0647,-0.0669,-0.0669,-0.0675,-0.0676,-0.0676,-0.0676,-0.0676,0.0141,0.0203,0.0287,0.0391,0.0482,0.06,0.0695,0.0796,0.0917,0.1014,0.0959,0.0905,0.0573,0.008,-0.0233,-0.0563,-0.058,-0.0706,-0.0705,-0.0705,-0.0687,-0.0673,-0.0703,-0.0703,-0.0704,-0.0704,-0.0704,0,0.0229,0.0298,0.0402,0.0536,0.0657,0.0679,0.0833,0.0939,0.1119,0.1164,0.1204,0.0894,0.0544,0.0175,-0.0306,-0.0612,-0.0642,-0.07,-0.0677,-0.0678,-0.0679,-0.0659,-0.0668,-0.0668,-0.0669,-0.0669,0,0,0.0283,0.04,0.0452,0.0667,0.0767,0.094,0.1042,0.1193,0.1275,0.1334,0.1291,0.1122,0.066,0.0328,-0.01,-0.0368,-0.0442,-0.042,-0.0423,-0.0346,-0.0342,-0.0665,-0.0634,0,0,0,0,0]}],[{"header":{"parameterUnit":"m.s-1","parameterCategory":2,"la1":30.2991,"la2":30.254,"lo1":-89.0895,"lo2":-89.0444,"dx":0.0017,"dy":0.0017,"nx":28,"ny":28,"refTime":"2023-01-30T15:00:00:Z","depth":"4","parameterNumber":2,"parameterNumberName":"U-component_of_CURRENTS"},"data":[0,0,0,0,0,0,0,0,0,0,0,0,0,0,0,0,0,0,0,0,0,0,0,0,0,0,0,0,0,0,0,0,0,0,0,0,0,0,0,0,0,0,0,0,0,0,0,0,0,0,0,0,0,0,0,0,0,0,0.0894,0.0895,0,0.0971,0.0971,0.0972,0.1024,0.1024,0.1024,0.1024,0.1073,0.1074,0.1075,0,0,0,0,0,0,0,0,0,0,0,0,0,0.0813,0.0814,0.0894,0.0895,0.0896,0.097,0.0972,0.0973,0.1024,0.1024,0.1024,0.1025,0.1073,0.1074,0.1075,0,0,0,0,0,0,0,0,0,0,0,0,0,0.0866,0.0815,0.0894,0.0929,0.0933,0.097,0.0972,0.0973,0.1024,0.1024,0.1024,0.1025,0.1072,0.1074,0.1076,0.1078,0,0,0.1081,0.1081,0,0,0,0,0,0,0,0,0.0863,0.0869,0.0923,0.0927,0.0931,0.0987,0.0961,0.1006,0.1024,0.0991,0.1024,0.1025,0.1041,0.1045,0.1061,0.1081,0.1083,0.1081,0.1082,0.1082,0.1083,0,0,0,0,0,0,0,0.0859,0.0866,0.0926,0.0924,0.0929,0.0948,0.0956,0.097,0.1013,0.0994,0.0997,0.1004,0.1043,0.1059,0.1062,0.1083,0.1081,0.1082,0.1083,0.1084,0.1184,0.1185,0,0,0,0,0,0,0.0846,0.0862,0.0923,0.0928,0.0896,0.0949,0.0958,0.097,0.1014,0.1021,0.1003,0.1006,0.1056,0.106,0.1064,0.1145,0.1082,0.1084,0.1085,0.1182,0.1184,0.1186,0,0,0,0,0,0,0.0844,0.0851,0.092,0.0896,0.0906,0.095,0.0963,0.0971,0.1022,0.1021,0.1028,0.1049,0.1057,0.1062,0.111,0.1144,0.1085,0.1086,0.118,0.1183,0.1185,0.1258,0,0,0,0,0,0,0.0841,0.085,0.0867,0.0895,0.0906,0.0961,0.0963,0.0972,0.1022,0.1027,0.1062,0.1065,0.1057,0.1107,0.1111,0.1145,0.1087,0.1178,0.1181,0.1184,0.1254,0.1263,0.1271,0,0,0,0,0,0.0838,0.0854,0.0868,0.0876,0.0925,0.0962,0.0972,0.1004,0.1024,0.1051,0.108,0.1065,0.113,0.1111,0.1114,0.115,0.1176,0.118,0.1184,0.125,0.1261,0.1271,0,0,0,0,0,0,0.0828,0.0862,0.0877,0.0903,0.094,0.0971,0.1,0.1026,0.1073,0.109,0.1091,0.1096,0.1152,0.1142,0.112,0.1188,0.1149,0.1154,0.1198,0.1209,0.1217,0.1217,0.1089,0,0,0,0,0,0.0832,0.0858,0.0891,0.0917,0.0937,0.0978,0.1004,0.1033,0.1069,0.1093,0.111,0.1134,0.1165,0.1181,0.12,0.1237,0.1233,0.1261,0.127,0.1277,0.1281,0.1311,0.1323,0.1198,0.1198,0.1198,0,0,0.0841,0.0858,0.0878,0.0918,0.095,0.099,0.0997,0.1051,0.1091,0.1088,0.115,0.117,0.1184,0.123,0.1252,0.1229,0.1313,0.1282,0.1288,0.1288,0.1316,0.1328,0.1339,0.1201,0.12,0.12,0,0,0.0859,0.0884,0.0913,0.0944,0.0996,0.1021,0.1046,0.1096,0.1129,0.119,0.12,0.1242,0.1283,0.1295,0.1308,0.1375,0.1362,0.1387,0.1427,0.1457,0.1467,0.1476,0.1493,0.1503,0.1385,0.1386,0.1386,0,0.0861,0.0904,0.0929,0.0961,0.0993,0.104,0.1085,0.1125,0.1185,0.1214,0.122,0.1303,0.1312,0.1368,0.1394,0.1394,0.1408,0.1387,0.1468,0.1477,0.1485,0.15,0.1509,0.139,0.1389,0.1389,0.1388,0,0.0901,0.0941,0.0962,0.1017,0.1055,0.1104,0.1154,0.1203,0.125,0.1284,0.1361,0.1382,0.1427,0.144,0.1442,0.1507,0.1498,0.148,0.144,0.1502,0.1513,0.1522,0.1395,0.1394,0.1393,0.1392,0,0,0.0884,0.0971,0.0981,0.1016,0.1092,0.1124,0.1197,0.1266,0.1319,0.1378,0.1439,0.1497,0.1516,0.1532,0.154,0.1565,0.1634,0.1555,0.1555,0.1569,0.1705,0.1634,0.1636,0.164,0.1642,0.1643,0.1693,0,0.0908,0.0971,0.1016,0.1091,0.1131,0.1193,0.1249,0.1319,0.1382,0.1447,0.149,0.1555,0.155,0.1587,0.1614,0.1637,0.1661,0.1622,0.1646,0.1646,0.1573,0.1645,0.1649,0.1699,0.1701,0.1703,0.1704,0,0.0932,0.0971,0.1042,0.1126,0.1151,0.1204,0.1303,0.1365,0.1462,0.1511,0.1585,0.1622,0.169,0.1667,0.1737,0.172,0.1722,0.1725,0.1726,0.1638,0.1591,0.1624,0.1719,0.1718,0.1717,0.1716,0.1715,0,0.0896,0.0988,0.1043,0.1073,0.1174,0.1224,0.1288,0.1388,0.1444,0.1563,0.1616,0.1698,0.1754,0.178,0.1809,0.1786,0.187,0.1827,0.1759,0.1753,0.1767,0.1757,0.1863,0.1863,0.1863,0.1863,0.1863,0,0.0889,0.0933,0.1035,0.1062,0.1134,0.1215,0.1304,0.1379,0.1486,0.1557,0.165,0.1712,0.1791,0.1848,0.1845,0.1846,0.1903,0.1782,0.1769,0.1798,0.179,0.1774,0.1763,0.1865,0.1865,0.1864,0.1864,0,0.0835,0.0905,0.0968,0.1079,0.1119,0.1171,0.1303,0.1359,0.1477,0.1574,0.1619,0.1749,0.1836,0.189,0.1945,0.189,0.1891,0.1869,0.1914,0.1901,0.1739,0.1732,0.1788,0.1786,0.1784,0.1783,0.1782,0,0.0809,0.0839,0.0959,0.0996,0.1051,0.1145,0.1205,0.134,0.14,0.1581,0.1612,0.1753,0.1828,0.1845,0.191,0.1918,0.1887,0.1869,0.1784,0.1753,0.1736,0.1731,0.1726,0.1779,0.1779,0.1779,0.1778,0,0.0752,0.0805,0.0854,0.0931,0.1001,0.1068,0.1169,0.1207,0.1367,0.1486,0.1577,0.1642,0.1741,0.1795,0.1833,0.1824,0.1873,0.1851,0.1853,0.1773,0.1743,0.1727,0.1723,0.1772,0.1773,0.1774,0.1774,0,0.0703,0.0722,0.0794,0.0853,0.0924,0.0965,0.1039,0.1126,0.1206,0.1411,0.1444,0.1595,0.1727,0.1748,0.1778,0.1784,0.1738,0.1656,0.1666,0.1673,0.1616,0.1561,0.1538,0,0,0,0,0,0.0655,0.0668,0.071,0.0768,0.0828,0.0877,0.0996,0.1075,0.1242,0.1269,0.1354,0.1443,0.1529,0.1605,0.1586,0.1717,0.1734,0.1688,0.164,0.1741,0.1748,0.1693,0,0,0,0,0,0,0.0619,0.0656,0.0678,0.0675,0.0698,0.076,0.0835,0.0952,0.0979,0.1156,0.1208,0.1345,0.1441,0.1516,0.1551,0.1575,0.1514,0.1785,0.1782,0.1737,0.1743,0.1748,0.1695,0,0,0,0,0]},{"header":{"parameterUnit":"m.s-1","parameterCategory":2,"la1":30.2991,"la2":30.254,"lo1":-89.0895,"lo2":-89.0444,"dx":0.0017,"dy":0.0017,"nx":28,"ny":28,"refTime":"2023-01-30T15:00:00:Z","depth":"4","parameterNumber":3,"parameterNumberName":"V-component_of_CURRENTS"},"data":[0,0,0,0,0,0,0,0,0,0,0,0,0,0,0,0,0,0,0,0,0,0,0,0,0,0,0,0,0,0,0,0,0,0,0,0,0,0,0,0,0,0,0,0,0,0,0,0,0,0,0,0,0,0,0,0,0,0,0.0074,0.0073,0,-0.0009,-0.001,-0.0011,-0.0053,-0.0053,-0.0053,-0.0053,-0.0145,-0.0147,-0.015,0,0,0,0,0,0,0,0,0,0,0,0,0,0.0149,0.0148,0.0074,0.0073,0.0072,-0.0009,-0.001,-0.0011,-0.0053,-0.0053,-0.0053,-0.0053,-0.0144,-0.0147,-0.015,0,0,0,0,0,0,0,0,0,0,0,0,0,0.0097,0.0148,0.0074,0.0041,0.0037,-0.0009,-0.001,-0.0011,-0.0053,-0.0053,-0.0053,-0.0053,-0.0143,-0.0147,-0.015,-0.017,0,0,-0.0161,-0.0163,0,0,0,0,0,0,0,0,0.01,0.0094,0.0047,0.0043,0.0039,-0.0021,-0.0018,-0.0065,-0.0053,-0.0018,-0.0053,-0.0053,-0.0105,-0.0112,-0.0126,-0.0175,-0.0179,-0.0162,-0.0164,-0.0165,-0.0166,0,0,0,0,0,0,0,0.0104,0.0097,0.0042,0.0046,0.0041,0.0014,0.0007,-0.0027,-0.0059,-0.0021,-0.0024,-0.0035,-0.0107,-0.0122,-0.0129,-0.018,-0.0162,-0.0165,-0.0167,-0.0168,-0.0267,-0.0267,0,0,0,0,0,0,0.0115,0.0101,0.0044,0.0039,0.0069,0.0013,0.0005,-0.0001,-0.0059,-0.0068,-0.0034,-0.0036,-0.0116,-0.0124,-0.0132,-0.0168,-0.0165,-0.0169,-0.0171,-0.0266,-0.0267,-0.0267,0,0,0,0,0,0,0.0117,0.0111,0.0048,0.0067,0.0057,0.0012,0.0005,-0.0003,-0.0024,-0.0069,-0.0078,-0.0048,-0.0117,-0.0127,-0.0168,-0.0172,-0.017,-0.0174,-0.0266,-0.0267,-0.0267,-0.0235,0,0,0,0,0,0,0.012,0.0113,0.0113,0.0069,0.0057,0.0022,0.0005,-0.0004,-0.003,-0.0033,-0.0084,-0.0092,-0.0118,-0.0163,-0.0172,-0.0177,-0.0176,-0.0265,-0.0266,-0.0267,-0.0236,-0.0235,-0.0234,0,0,0,0,0,0.0123,0.0128,0.0114,0.0107,0.0059,0.0022,0.0014,-0.0019,-0.003,-0.0039,-0.0076,-0.0091,-0.0174,-0.0166,-0.0177,-0.0183,-0.0265,-0.0266,-0.0267,-0.0236,-0.0235,-0.0234,0,0,0,0,0,0,0.0153,0.0122,0.0106,0.0099,0.0063,0.0015,0.0007,-0.002,-0.0056,-0.006,-0.0101,-0.0112,-0.0151,-0.0172,-0.0162,-0.0214,-0.0221,-0.0224,-0.0194,-0.0193,-0.0192,-0.018,-0.0179,0,0,0,0,0,0.0162,0.0161,0.0117,0.0109,0.0097,0.0051,0.0032,0.0004,-0.0034,-0.005,-0.0085,-0.0124,-0.0163,-0.0181,-0.0218,-0.0246,-0.0273,-0.0257,-0.0256,-0.0255,-0.0253,-0.0305,-0.0308,-0.0271,-0.0271,-0.0271,0,0,0.0165,0.0152,0.0147,0.0115,0.0089,0.0069,0.004,0.0011,-0.0009,-0.0055,-0.0085,-0.0125,-0.0172,-0.0205,-0.0223,-0.0223,-0.0278,-0.0256,-0.0255,-0.0253,-0.0306,-0.031,-0.0313,-0.0272,-0.0272,-0.0271,0,0,0.0174,0.0167,0.0166,0.0145,0.0109,0.0082,0.0074,0.0025,0.0004,-0.0036,-0.0074,-0.0118,-0.0169,-0.0205,-0.023,-0.0247,-0.0275,-0.0256,-0.0238,-0.0288,-0.0292,-0.0295,-0.0325,-0.0331,-0.025,-0.025,-0.025,0,0.0184,0.0176,0.0157,0.015,0.0138,0.0091,0.0079,0.0049,-0.001,-0.0027,-0.004,-0.0132,-0.017,-0.022,-0.0225,-0.0245,-0.0271,-0.0236,-0.0287,-0.029,-0.0294,-0.0324,-0.0332,-0.0249,-0.0249,-0.0249,-0.0249,0,0.0181,0.018,0.0181,0.0163,0.0146,0.0131,0.009,0.0069,0.0039,0.0001,-0.0053,-0.0112,-0.0164,-0.0185,-0.0211,-0.0257,-0.0265,-0.0282,-0.0286,-0.0296,-0.0327,-0.0335,-0.0247,-0.0247,-0.0248,-0.0248,0,0,0.0189,0.0184,0.0183,0.0187,0.0155,0.0142,0.012,0.0084,0.0069,0.0009,-0.0019,-0.0095,-0.013,-0.0161,-0.0204,-0.0247,-0.0296,-0.0269,-0.0273,-0.0292,-0.0394,-0.037,-0.0377,-0.0322,-0.0324,-0.0325,-0.0401,0,0.0192,0.0201,0.0189,0.019,0.0192,0.0164,0.0151,0.0113,0.0075,0.0038,-0.0032,-0.0077,-0.012,-0.0144,-0.0197,-0.0274,-0.0318,-0.0273,-0.0387,-0.039,-0.0363,-0.0386,-0.033,-0.0407,-0.0409,-0.041,-0.0411,0,0.0188,0.0201,0.0211,0.0223,0.0221,0.0213,0.0196,0.0177,0.0117,0.0089,0.0027,-0.0031,-0.0108,-0.0139,-0.0274,-0.0243,-0.0314,-0.0372,-0.0377,-0.0372,-0.0382,-0.0399,-0.0427,-0.0425,-0.0424,-0.0423,-0.0422,0,0.0207,0.0216,0.0235,0.0235,0.0233,0.0236,0.0231,0.0189,0.0184,0.012,0.0107,-0.0003,-0.0047,-0.016,-0.028,-0.0281,-0.0423,-0.0441,-0.0487,-0.0486,-0.0497,-0.0493,-0.0537,-0.0537,-0.0537,-0.0537,-0.0537,0,0.0219,0.0233,0.025,0.026,0.0285,0.027,0.028,0.026,0.0231,0.023,0.0138,0.0111,-0.0055,-0.0155,-0.0271,-0.0398,-0.042,-0.0488,-0.0509,-0.0481,-0.0474,-0.0502,-0.0497,-0.054,-0.0539,-0.0539,-0.0538,0,0.0229,0.024,0.0267,0.0285,0.0296,0.0312,0.0332,0.034,0.031,0.0306,0.0293,0.0188,0.0058,-0.0104,-0.0287,-0.037,-0.0503,-0.0543,-0.0486,-0.0502,-0.0534,-0.0527,-0.0605,-0.0605,-0.0605,-0.0605,-0.0605,0,0.0235,0.0252,0.0293,0.032,0.0331,0.0359,0.0385,0.0378,0.0394,0.0359,0.0365,0.0243,0.0156,-0.0073,-0.0254,-0.0478,-0.0507,-0.0565,-0.0568,-0.0531,-0.0544,-0.0537,-0.053,-0.0605,-0.0605,-0.0605,-0.0605,0,0.0248,0.0263,0.0289,0.0351,0.0389,0.0435,0.0473,0.0492,0.0489,0.0467,0.0429,0.0299,0.0153,-0.0051,-0.0226,-0.0386,-0.0525,-0.0565,-0.0567,-0.057,-0.0532,-0.0543,-0.0536,-0.0604,-0.0604,-0.0604,-0.0604,0,0.0258,0.028,0.0323,0.0376,0.0433,0.0493,0.051,0.0536,0.0548,0.0516,0.0502,0.0336,0.0232,-0.0004,-0.0164,-0.0323,-0.0367,-0.0404,-0.0414,-0.0417,-0.0344,-0.0266,-0.0278,0,0,0,0,0,0.0265,0.0295,0.0348,0.0409,0.0471,0.0509,0.0563,0.0576,0.058,0.0571,0.0539,0.0405,0.0165,0.0055,-0.01,-0.0182,-0.0408,-0.0368,-0.0458,-0.0603,-0.0603,-0.0548,0,0,0,0,0,0,0.0269,0.0315,0.0346,0.043,0.048,0.0553,0.0593,0.0601,0.0594,0.0573,0.0446,0.0382,0.0139,0.0252,-0.01,-0.0151,-0.0223,-0.0488,-0.049,-0.0603,-0.0603,-0.0603,-0.0547,0,0,0,0,0]}]]